Total_Precipitation_Accumulation
0.00 0.00 0.02 0.01 0.01 0.02 0.04 0.03 0.02 0.04 0.05 0.07 0.06 0.06 0.09 0.10 0.07 0.03 0.01 0.01 0.02 0.03 0.05 0.04 0.05 0.05 0.05 0.05 0.04 0.02 0.01 0.00 0.00 0.01 0.01 0.02 0.02 0.03 0.03 0.02 0.05 0.05 0.02
0.00 0.00 0.03 0.01 0.01 0.01 0.04 0.04 0.04 0.04 0.03 0.03 0.05 0.09 0.13 0.12 0.10 0.04 0.01 0.01 0.01 0.01 0.03 0.03 0.04 0.04 0.04 0.04 0.03 0.02 0.01 0.00 0.00 0.01 0.01 0.01 0.03 0.05 0.05 0.02 0.05 0.03 0.01
0.00 0.00 0.01 0.01 0.01 0.01 0.01 0.03 0.06 0.07 0.04 0.02 0.06 0.10 0.12 0.11 0.10 0.08 0.07 0.02 0.01 0.01 0.01 0.01 0.02 0.03 0.02 0.02 0.02 0.01 0.00 0.00 0.00 0.01 0.02 0.06 0.03 0.04 0.05 0.02 0.01 0.01 0.01
0.00 0.00 0.00 0.01 0.01 0.01 0.01 0.02 0.06 0.07 0.04 0.04 0.11 0.12 0.08 0.10 0.11 0.09 0.09 0.05 0.03 0.01 0.00 0.01 0.01 0.03 0.02 0.01 0.00 0.00 0.00 0.00 0.01 0.01 0.05 0.16 0.08 0.04 0.05 0.05 0.03 0.02 0.03
0.00 0.00 0.00 0.01 0.01 0.01 0.01 0.02 0.04 0.05 0.04 0.05 0.09 0.10 0.07 0.10 0.11 0.10 0.08 0.08 0.08 0.04 0.01 0.02 0.02 0.03 0.02 0.01 0.01 0.01 0.00 0.00 0.00 0.01 0.03 0.12 0.15 0.09 0.09 0.14 0.13 0.10 0.08
0.00 0.00 0.00 0.01 0.01 0.01 0.01 0.02 0.03 0.04 0.04 0.03 0.04 0.06 0.06 0.11 0.16 0.14 0.10 0.12 0.13 0.11 0.05 0.02 0.02 0.03 0.02 0.01 0.01 0.01 0.01 0.01 0.01 0.01 0.02 0.06 0.21 0.21 0.16 0.31 0.40 0.35 0.27
0.00 0.00 0.00 0.01 0.01 0.00 0.01 0.01 0.02 0.03 0.03 0.01 0.01 0.02 0.02 0.06 0.11 0.12 0.10 0.11 0.11 0.10 0.08 0.06 0.04 0.04 0.04 0.04 0.03 0.03 0.04 0.05 0.03 0.02 0.02 0.06 0.19 0.16 0.19 0.44 0.68 0.62 0.48
0.00 0.00 0.01 0.01 0.01 0.01 0.01 0.01 0.01 0.02 0.02 0.01 0.01 0.01 0.01 0.03 0.05 0.07 0.08 0.07 0.06 0.04 0.05 0.07 0.08 0.08 0.06 0.05 0.05 0.05 0.05 0.05 0.05 0.05 0.04 0.08 0.12 0.12 0.27 0.47 0.68 0.69 0.60
0.00 0.00 0.01 0.01 0.01 0.01 0.01 0.01 0.01 0.01 0.01 0.01 0.01 0.01 0.01 0.02 0.03 0.04 0.07 0.07 0.06 0.06 0.07 0.07 0.07 0.07 0.07 0.07 0.05 0.05 0.05 0.05 0.05 0.09 0.10 0.19 0.24 0.26 0.47 0.56 0.62 0.66 0.66
0.00 0.00 0.00 0.01 0.01 0.01 0.01 0.01 0.01 0.01 0.01 0.01 0.01 0.01 0.01 0.01 0.02 0.03 0.06 0.06 0.07 0.07 0.07 0.08 0.10 0.10 0.10 0.10 0.11 0.12 0.10 0.06 0.03 0.04 0.16 0.21 0.27 0.45 0.67 0.72 0.74 0.74 0.78
0.00 0.00 0.00 0.00 0.01 0.01 0.01 0.00 0.01 0.01 0.01 0.01 0.01 0.02 0.02 0.02 0.04 0.09 0.07 0.10 0.11 0.14 0.14 0.13 0.14 0.14 0.14 0.12 0.19 0.28 0.21 0.15 0.10 0.08 0.13 0.20 0.27 0.49 0.74 0.82 0.87 0.90 0.92
0.00 0.00 0.00 0.00 0.00 0.00 0.00 0.00 0.00 0.00 0.01 0.01 0.03 0.06 0.08 0.10 0.10 0.06 0.10 0.17 0.23 0.37 0.39 0.40 0.40 0.32 0.27 0.22 0.54 0.75 0.26 0.27 0.26 0.20 0.19 0.20 0.34 0.63 0.85 0.82 0.84 0.92 0.90
0.00 0.00 0.00 0.00 0.00 0.01 0.00 0.00 0.00 0.00 0.02 0.01 0.02 0.06 0.10 0.11 0.09 0.07 0.11 0.22 0.32 0.41 0.47 0.73 0.85 0.62 0.58 0.59 0.60 0.60 0.27 0.23 0.26 0.27 0.32 0.36 0.46 0.77 1.02 0.87 0.76 0.84 0.92
0.00 0.00 0.00 0.01 0.01 0.01 0.01 0.01 0.01 0.01 0.02 0.02 0.04 0.05 0.09 0.13 0.12 0.14 0.24 0.29 0.35 0.39 0.56 0.65 0.86 0.69 0.58 0.56 0.59 0.53 0.49 0.47 0.39 0.47 0.55 0.40 0.45 0.68 0.97 0.92 0.78 0.74 0.81
0.01 0.02 0.02 0.02 0.02 0.02 0.02 0.03 0.03 0.03 0.05 0.06 0.08 0.11 0.13 0.17 0.21 0.27 0.31 0.40 0.37 0.39 0.54 0.66 0.68 0.78 0.85 0.91 0.77 0.68 0.69 0.67 0.61 0.76 0.76 0.57 0.49 0.56 0.75 0.89 0.87 0.79 0.73
0.07 0.07 0.08 0.08 0.08 0.08 0.08 0.08 0.10 0.13 0.15 0.17 0.19 0.21 0.24 0.32 0.40 0.48 0.51 0.58 0.51 0.54 0.66 0.81 0.89 1.14 1.09 0.99 0.79 0.75 0.72 0.69 0.62 0.64 0.65 0.61 0.47 0.47 0.57 0.73 0.83 0.84 0.78
0.17 0.21 0.24 0.28 0.29 0.32 0.32 0.32 0.34 0.37 0.41 0.40 0.41 0.43 0.45 0.53 0.68 0.79 0.76 0.74 0.82 0.85 0.94 1.06 1.08 1.14 1.00 0.92 0.83 0.84 0.78 0.67 0.54 0.53 0.51 0.47 0.42 0.38 0.44 0.57 0.71 0.80 0.77
0.39 0.47 0.53 0.59 0.68 0.74 0.78 0.82 0.81 0.81 0.78 0.71 0.69 0.72 0.76 0.82 0.94 1.15 1.02 0.99 1.21 1.13 1.24 1.45 1.38 1.29 1.17 1.07 0.92 0.80 0.73 0.60 0.45 0.45 0.41 0.42 0.46 0.35 0.37 0.52 0.60 0.61 0.72
0.75 0.91 0.94 1.02 1.16 1.26 1.31 1.32 1.36 1.36 1.24 1.08 1.04 1.02 0.95 0.96 1.06 1.32 1.21 1.23 1.30 1.45 1.50 1.35 1.59 1.52 1.33 1.26 1.04 0.83 0.62 0.50 0.42 0.39 0.35 0.29 0.32 0.32 0.27 0.33 0.41 0.50 0.69
1.36 1.53 1.66 1.78 1.77 1.63 1.57 1.70 1.74 1.58 1.52 1.41 1.36 1.32 1.21 1.20 1.28 1.55 1.40 1.33 1.47 1.62 1.56 1.50 1.60 1.59 1.39 1.35 1.02 0.70 0.57 0.43 0.37 0.36 0.32 0.28 0.24 0.23 0.25 0.33 0.48 0.49 0.52
1.90 2.05 2.21 2.40 2.51 2.41 2.43 2.48 2.42 2.13 1.99 1.75 1.55 1.38 1.29 1.22 1.33 1.59 1.43 1.53 1.54 1.54 1.52 1.55 1.73 1.69 1.47 1.50 1.21 0.77 0.47 0.32 0.27 0.31 0.36 0.35 0.28 0.29 0.39 0.50 0.54 0.57 0.64
1.74 2.11 2.43 2.35 2.31 2.26 2.45 2.69 2.83 2.76 2.36 1.85 1.64 1.55 1.38 1.30 1.36 1.45 1.47 1.40 1.45 1.51 1.51 1.54 1.68 1.52 1.31 1.41 1.35 1.19 0.70 0.46 0.36 0.36 0.50 0.53 0.47 0.47 0.50 0.50 0.56 0.62 0.71
1.46 1.74 1.81 1.62 1.68 1.66 1.75 1.99 2.14 2.40 2.30 2.04 1.75 1.58 1.47 1.40 1.37 1.41 1.43 1.40 1.40 1.42 1.43 1.55 1.56 1.45 1.29 1.28 1.38 1.48 1.16 0.80 0.56 0.34 0.34 0.43 0.52 0.52 0.49 0.51 0.49 0.52 0.59
1.01 0.97 0.98 1.04 1.12 1.21 1.35 1.60 1.87 2.13 2.11 2.01 1.93 1.68 1.47 1.32 1.23 1.20 1.21 1.21 1.23 1.26 1.33 1.28 1.29 1.37 1.38 1.29 1.35 1.40 1.35 1.24 1.04 0.56 0.34 0.38 0.48 0.52 0.51 0.48 0.48 0.52 0.56
0.85 0.87 0.87 0.97 1.11 1.22 1.33 1.47 1.66 2.01 1.99 1.82 1.68 1.51 1.42 1.32 1.23 1.14 1.12 1.07 1.04 1.05 1.11 1.14 1.29 1.30 1.32 1.30 1.26 1.26 1.34 1.33 1.23 0.95 0.56 0.49 0.50 0.47 0.51 0.53 0.55 0.63 0.73
0.75 0.84 0.90 0.92 0.99 1.05 1.11 1.19 1.24 1.41 1.48 1.38 1.31 1.26 1.19 1.10 1.05 1.06 1.04 0.99 0.97 0.99 1.07 1.08 1.10 1.10 1.12 1.16 1.12 1.09 1.15 1.14 1.12 1.14 0.89 0.77 0.72 0.64 0.65 0.67 0.68 0.73 0.70